GFSGBSN_850_thetae_057.txt.gz
Theta_e
308 308 309 309 309 309 310 310 310 310 311 311 311 312 312 312 313 313 314 314 315 315 315 315 316 316 316 317 324 328 330 326 323 326 326 323 321 324 326 326 326 328 328 329 329 330 338
308 308 308 308 309 309 309 310 310 310 310 310 311 311 312 312 313 313 314 314 315 315 315 315 315 316 316 316 327 331 329 327 322 320 320 320 322 327 326 326 325 327 327 327 333 339 339
307 307 308 308 308 308 309 309 309 310 310 310 311 311 312 312 313 313 314 315 315 315 315 315 315 315 316 319 320 327 329 326 326 325 324 324 325 325 326 325 326 326 330 330 333 337 340
305 306 306 306 307 308 308 308 309 309 310 310 310 311 311 312 312 313 314 314 315 315 316 315 315 315 316 319 320 323 325 323 325 326 326 326 326 324 326 326 323 328 329 330 330 332 338
304 304 305 305 306 306 307 307 308 309 309 309 310 311 311 312 312 313 314 314 315 316 316 316 315 316 318 321 322 323 323 323 323 324 325 325 325 324 324 320 318 320 326 331 332 332 333
303 303 304 304 304 304 305 305 306 307 308 309 309 310 311 312 312 313 314 314 316 319 323 319 318 317 318 321 323 324 324 324 323 323 324 325 324 319 316 316 319 323 328 330 330 332 332
303 303 303 303 303 303 303 304 305 305 306 308 308 309 311 311 312 313 314 321 321 322 320 321 321 319 321 321 321 324 323 324 324 321 321 322 320 321 320 318 320 322 323 323 325 327 331
302 303 303 303 303 303 303 303 304 304 305 306 307 308 310 311 312 312 313 317 316 315 316 319 320 320 323 323 321 324 324 323 323 322 321 319 318 319 321 321 321 320 321 321 322 328 333
301 302 302 303 303 302 303 303 303 303 304 304 305 307 309 310 312 312 313 317 316 317 316 318 319 319 320 320 321 324 324 323 321 321 321 319 320 322 322 322 322 320 321 322 324 330 330
300 301 302 302 302 302 302 303 303 303 303 304 305 306 307 310 311 312 316 317 316 318 312 316 318 320 320 319 321 323 324 323 320 319 319 320 321 322 322 321 320 319 321 326 332 330 326
300 300 301 302 302 302 302 302 303 303 303 303 304 305 306 307 309 311 316 317 318 318 313 317 320 321 320 320 322 322 323 323 319 321 320 320 322 322 322 322 321 321 322 328 327 324 322
301 300 300 301 302 302 302 302 302 303 303 303 304 304 305 306 308 310 316 317 318 315 315 318 321 319 318 319 320 322 321 323 322 320 320 320 322 323 321 323 322 322 320 318 318 318 321
303 301 300 301 301 301 302 302 302 303 303 304 304 304 305 306 308 313 316 317 313 315 316 318 319 318 317 317 318 320 319 318 317 318 318 320 321 322 324 324 321 318 315 316 319 320 321
304 302 301 301 301 301 301 301 302 302 303 303 305 305 306 307 307 310 314 312 315 315 316 317 318 318 320 319 318 319 318 317 317 318 317 320 320 322 324 323 323 321 316 316 320 321 322
305 302 301 301 300 301 301 301 302 302 302 304 305 306 307 308 307 308 314 311 312 315 319 318 318 319 318 318 317 318 316 316 317 317 318 318 319 321 323 323 322 322 320 316 316 317 320
305 303 302 301 300 300 301 301 302 302 302 304 305 307 308 308 309 309 310 311 313 314 316 316 318 319 318 318 320 320 317 319 319 317 318 318 320 320 322 324 322 321 318 320 316 323 323
305 305 302 301 301 300 301 301 302 302 302 304 306 315 314 312 309 314 310 310 313 316 316 317 318 318 318 319 319 319 321 323 322 321 317 316 317 322 323 322 322 320 319 318 316 318 321
308 308 306 301 301 300 301 301 301 302 302 304 307 314 315 313 311 308 309 311 315 315 317 316 317 316 316 317 319 319 322 323 324 322 319 316 315 318 319 320 322 320 320 318 319 320 322
310 309 307 303 301 300 301 301 301 301 302 303 306 312 315 312 310 309 309 312 314 313 313 315 318 318 318 317 318 319 321 322 324 326 326 319 316 318 318 318 320 327 324 319 316 316 325
309 309 309 304 301 300 301 301 302 301 301 303 308 318 318 315 312 310 312 312 313 316 315 316 316 317 316 317 316 318 319 321 321 325 326 321 316 317 318 319 322 327 327 324 321 323 323
313 310 310 307 301 300 301 301 302 301 301 304 309 313 317 314 313 312 311 313 313 313 317 316 316 316 317 317 317 317 320 319 320 323 325 320 318 323 322 323 324 326 326 325 326 323 327
314 311 310 308 301 300 301 301 301 301 302 310 310 316 315 316 316 314 312 312 314 315 316 319 317 317 316 316 317 322 323 320 321 320 320 322 327 323 323 325 327 327 326 327 328 327 328
314 313 311 309 301 300 301 300 301 301 302 312 315 314 314 315 315 314 313 316 317 317 319 320 320 318 321 323 323 323 324 323 321 322 321 325 323 327 328 325 326 321 325 327 329 330 329
314 313 312 310 304 301 301 299 301 300 301 306 312 313 314 314 314 316 316 315 317 318 317 319 320 322 324 324 323 322 320 321 320 320 320 320 320 327 330 325 326 321 326 328 334 339 337
313 312 312 311 305 301 301 299 300 300 300 302 312 311 312 312 315 315 315 315 318 319 320 321 323 323 324 322 318 317 317 317 319 319 318 316 319 320 326 326 326 330 333 333 333 332 337
313 312 311 310 305 302 301 299 299 300 300 301 312 309 310 312 313 315 313 315 315 315 318 321 323 326 323 316 320 320 319 320 320 319 312 316 315 318 324 324 327 329 339 338 334 333 333
313 312 311 310 308 302 301 300 298 300 300 300 313 311 307 311 312 313 311 312 314 315 316 316 318 326 325 317 321 322 321 320 321 319 318 315 316 320 322 323 326 333 333 337 336 329 330
313 312 311 311 309 303 302 300 298 299 300 300 311 311 310 309 308 311 312 310 312 314 313 315 320 321 321 325 321 319 322 324 325 327 330 326 329 324 322 323 327 330 333 334 328 329 332
313 311 311 311 309 303 302 300 298 299 299 300 311 311 311 310 307 309 313 310 311 311 313 318 318 319 323 320 321 321 328 325 326 331 324 330 327 328 332 329 329 330 327 325 329 332 334

GFSGBSN_850_thetae_060.txt.gz
Theta_e
308 309 309 309 309 309 310 310 310 310 310 311 311 311 312 312 313 313 314 314 314 315 315 315 315 316 317 317 321 329 329 325 325 327 329 327 320 321 324 325 325 324 326 326 328 333 330
308 308 308 308 309 309 309 309 310 310 310 310 311 311 312 312 312 313 314 314 314 315 315 315 315 315 316 315 320 329 329 328 325 321 320 319 320 325 325 325 324 326 325 326 332 337 338
307 307 308 308 308 308 309 309 309 309 310 310 310 311 311 312 312 313 314 314 314 315 315 315 315 315 315 318 319 324 328 329 326 323 323 324 323 323 324 324 325 325 326 328 330 334 338
305 305 306 307 307 307 307 308 308 309 309 310 310 310 311 311 312 313 314 314 315 315 316 315 315 315 316 319 319 321 323 325 324 325 325 325 324 323 323 324 322 324 326 327 327 332 335
304 304 304 305 305 306 306 307 307 308 309 309 309 310 311 311 312 312 313 314 315 315 316 317 316 315 317 319 320 322 322 322 323 323 323 323 323 323 322 318 316 317 324 327 330 330 332
303 304 303 303 304 304 304 305 306 306 307 308 309 309 310 311 311 312 313 314 315 318 321 321 318 316 318 320 322 324 324 324 323 323 322 323 322 317 315 316 318 321 321 322 325 326 330
302 303 303 303 303 303 303 304 304 305 306 306 307 309 309 310 311 312 313 319 320 319 320 321 321 319 320 321 321 322 323 323 323 321 318 320 319 320 320 318 319 320 320 320 321 322 326
301 301 302 302 303 303 303 303 303 304 304 305 306 307 309 310 310 312 312 316 314 314 315 318 319 319 321 321 321 323 323 322 321 319 320 318 318 319 320 320 320 320 320 319 320 325 327
301 301 301 302 302 303 303 303 303 303 304 304 305 306 307 309 310 311 312 316 315 315 315 317 318 318 319 320 320 322 323 322 320 320 319 318 320 320 321 321 321 319 320 320 321 325 328
302 301 301 301 302 302 302 303 303 303 303 304 304 305 306 308 310 310 312 316 315 317 310 314 316 319 318 319 319 322 323 323 319 318 318 318 319 321 321 321 318 320 318 321 323 329 326
303 302 301 301 301 302 302 302 303 303 303 303 304 304 305 305 307 309 313 316 316 317 311 316 317 319 318 318 319 320 323 323 319 319 317 318 321 321 321 321 319 320 320 321 326 324 321
305 304 302 301 301 301 301 302 302 303 303 303 304 304 305 305 307 309 311 316 317 313 313 315 319 317 317 318 318 320 320 321 321 319 319 317 320 321 320 322 320 320 319 315 315 315 319
305 305 303 302 301 301 301 301 302 302 302 303 303 304 305 305 307 310 312 315 313 313 314 317 317 317 316 316 317 318 318 317 317 317 316 317 319 320 322 322 320 317 315 316 318 317 319
307 305 304 302 301 301 301 301 301 302 302 303 304 304 305 306 306 307 310 311 314 313 314 315 317 316 318 316 317 317 316 316 316 315 314 315 317 320 321 321 321 320 315 315 319 317 319
312 305 305 303 302 301 301 301 301 302 302 303 304 305 306 307 307 306 311 311 313 313 317 316 316 316 316 317 317 317 315 315 315 315 316 317 318 319 321 321 321 320 319 316 314 315 317
314 307 305 304 302 301 301 301 301 302 302 303 304 306 310 309 307 306 309 310 311 312 315 314 317 317 317 317 317 318 317 319 318 315 316 317 317 318 321 322 319 320 317 319 314 320 321
316 313 308 307 304 302 301 301 301 302 302 303 305 309 314 308 309 310 309 308 311 314 315 316 317 317 317 318 317 318 320 321 321 321 315 313 315 318 322 321 319 317 318 315 314 315 320
317 315 312 309 307 303 301 301 301 302 301 303 306 310 312 309 309 305 308 310 314 314 315 315 316 316 317 317 317 318 320 322 321 322 317 315 313 315 318 319 320 319 318 316 317 319 319
317 315 315 309 309 304 301 301 301 302 301 301 304 309 311 311 308 307 308 311 313 312 313 313 315 315 314 316 317 317 319 321 320 326 326 316 314 316 317 316 319 324 319 315 313 316 323
316 315 314 310 311 306 302 301 301 302 300 301 306 316 314 312 311 309 311 312 312 314 313 312 314 315 316 316 316 317 318 319 321 323 321 319 312 315 316 317 319 327 325 321 320 322 321
315 315 313 312 312 308 302 301 301 301 300 303 307 311 316 312 312 310 311 312 313 314 314 314 313 314 314 314 316 317 321 319 319 320 323 316 321 321 321 318 323 325 325 324 324 322 326
315 316 315 312 312 308 302 301 300 301 300 311 309 314 315 313 315 313 312 314 314 314 313 315 315 315 313 314 313 316 322 320 320 319 320 319 324 324 323 321 325 326 325 325 325 323 327
315 315 315 313 312 309 303 301 300 301 300 307 312 313 313 313 313 313 313 314 316 316 317 316 319 318 317 319 320 322 322 321 320 321 318 320 320 324 326 325 324 322 321 325 327 327 329
315 314 314 313 311 311 303 301 300 300 299 300 306 311 313 313 313 315 315 315 315 317 316 319 319 321 323 323 323 321 320 319 318 318 317 317 320 324 327 324 327 321 327 328 333 336 334
315 314 313 313 311 309 306 301 300 300 300 299 302 309 311 310 314 314 314 314 316 317 319 321 322 322 322 321 317 317 317 317 319 318 316 313 315 319 325 324 325 330 337 338 338 332 332
315 314 313 313 311 309 304 301 300 299 300 299 306 310 309 310 312 314 313 312 313 313 317 319 322 325 322 316 317 319 319 319 320 317 314 315 312 317 324 323 326 335 333 332 334 331 330
315 314 313 313 311 308 304 301 300 298 299 299 304 311 309 309 309 313 310 310 311 313 314 314 317 324 322 315 318 319 319 318 320 318 319 316 316 317 318 320 323 331 329 330 333 327 328
315 314 313 313 311 310 305 302 300 298 299 299 303 310 310 308 306 307 311 311 310 312 311 314 319 320 319 323 318 317 320 324 326 326 329 327 329 323 319 321 324 328 328 333 328 328 332
315 314 313 313 312 311 304 302 300 298 298 299 304 310 310 310 308 307 307 311 310 310 311 315 318 318 321 320 319 320 326 323 324 329 324 330 326 327 329 327 326 329 326 325 325 325 328

GFSGBSN_850_thetae_063.txt.gz
Theta_e
309 309 309 309 309 309 309 310 310 310 310 310 311 311 311 312 312 313 313 314 314 314 315 315 316 317 317 317 319 326 327 322 322 325 326 326 321 322 324 327 326 327 327 327 327 332 334
308 308 308 308 309 309 309 309 309 309 310 310 310 311 311 312 312 313 313 314 314 315 315 315 316 316 316 316 319 321 329 326 324 324 323 323 320 321 325 326 326 326 326 326 330 337 338
307 308 308 308 308 308 308 309 309 309 309 310 310 310 311 311 312 312 313 313 314 315 315 315 316 316 316 318 318 319 328 328 325 322 320 322 322 322 324 326 325 325 328 329 333 335 340
305 305 306 307 307 307 307 308 308 309 309 309 309 310 311 311 311 312 313 313 314 315 315 316 316 315 316 318 318 319 323 325 327 325 325 324 324 322 323 323 323 326 329 332 331 333 337
304 304 304 304 305 305 306 306 307 307 308 308 309 309 310 311 311 312 313 313 314 315 315 316 317 316 317 318 319 319 320 321 322 323 323 323 323 322 322 325 326 325 328 329 330 329 334
302 303 303 304 304 304 304 305 305 306 306 307 308 309 309 310 311 312 313 313 315 316 318 320 319 318 318 319 322 323 323 323 323 322 321 322 321 324 323 325 330 326 325 325 327 329 327
302 301 302 302 303 303 304 304 304 304 305 305 306 307 309 309 310 311 313 314 318 318 320 320 320 318 318 320 321 322 323 323 323 321 322 320 324 326 326 325 324 324 325 326 327 325 326
303 302 302 302 302 303 303 303 303 303 304 304 305 306 307 308 310 311 311 316 314 313 315 317 318 319 320 320 320 322 322 322 322 323 322 323 325 325 322 322 323 324 325 326 326 327 328
304 303 302 302 301 302 303 303 303 303 303 304 304 305 306 307 308 310 311 315 315 314 315 317 318 318 318 319 320 321 322 322 323 323 323 324 324 321 322 324 324 325 325 326 326 326 330
305 305 304 303 302 302 302 302 303 303 304 304 304 304 305 306 308 308 311 314 314 315 317 318 317 318 318 318 320 320 321 323 321 323 322 323 322 322 323 324 324 326 324 324 324 327 328
306 305 305 304 302 302 302 302 302 303 303 303 303 304 304 305 306 307 311 312 314 315 316 318 317 318 318 318 318 320 320 322 324 322 322 323 323 323 324 324 323 325 323 324 326 330 328
309 307 305 305 304 303 302 302 302 302 302 303 303 303 304 304 306 307 309 311 315 318 316 317 319 318 318 318 318 318 320 321 322 322 321 322 320 323 324 324 323 323 323 323 324 326 327
312 311 309 305 304 303 302 302 302 302 303 303 303 303 304 305 305 307 310 313 319 318 316 318 319 319 318 318 318 320 320 322 323 323 324 323 322 322 322 323 322 322 325 327 325 326 326
317 313 314 305 304 303 303 302 302 302 302 303 304 304 305 306 306 306 308 316 320 318 317 317 319 319 320 319 318 319 320 321 319 321 323 323 323 321 323 324 325 325 326 326 326 325 325
319 315 315 308 306 304 302 302 302 302 302 303 304 305 306 306 307 306 310 318 318 318 317 317 318 320 321 320 319 319 320 321 322 321 323 323 322 321 322 323 325 324 326 323 326 324 326
320 318 316 314 310 308 304 302 302 302 302 303 303 305 309 312 307 306 313 317 317 313 316 316 318 319 321 321 321 322 320 321 320 319 320 323 322 322 323 323 321 325 323 326 326 331 329
319 319 318 315 314 310 307 302 302 302 302 302 303 307 314 308 307 308 313 315 315 314 315 316 318 317 319 319 320 321 322 323 324 321 318 321 324 323 324 326 326 324 325 324 326 327 328
318 318 318 316 315 310 309 307 302 302 302 302 304 309 312 307 309 307 313 314 313 315 314 316 317 317 316 317 320 321 323 324 321 323 322 321 324 325 323 322 322 325 327 329 327 331 329
318 317 317 316 316 311 312 307 302 301 302 300 302 306 310 311 312 313 311 313 313 314 315 315 317 317 318 319 321 320 321 320 321 327 327 321 324 325 326 323 323 326 324 325 327 330 335
318 317 317 317 314 312 312 307 302 301 301 300 304 319 312 309 310 311 314 316 316 314 314 313 314 316 318 319 319 320 321 321 320 323 321 321 323 327 325 326 325 330 326 324 329 332 333
318 317 316 316 315 312 311 306 301 301 301 300 306 313 315 316 314 313 314 315 316 316 315 314 316 315 318 321 319 320 323 323 321 321 326 326 332 327 326 324 325 327 329 327 330 332 332
316 316 316 315 315 314 311 306 301 300 301 306 310 315 314 314 315 316 314 318 317 318 317 318 317 318 317 320 322 321 324 325 324 324 326 327 335 331 330 327 329 328 327 328 328 328 331
317 316 315 314 314 313 310 306 301 301 300 302 308 311 312 315 316 316 317 317 317 317 318 316 317 319 316 318 318 322 322 322 323 325 327 330 331 335 328 331 329 329 327 327 331 333 336
317 316 315 314 314 313 311 309 301 301 300 299 301 306 312 317 316 318 317 316 316 317 319 319 320 324 322 322 322 320 320 320 322 322 321 328 333 333 331 331 330 328 338 336 340 339 338
318 316 315 314 314 313 311 309 301 300 300 299 299 306 309 313 313 316 315 316 315 317 318 321 321 322 321 320 323 324 323 322 322 320 322 321 327 328 330 333 330 337 340 342 343 338 336
317 316 315 314 313 313 311 306 301 300 299 300 299 307 308 309 312 312 314 312 316 317 322 320 320 324 320 322 323 325 323 323 324 322 320 322 324 325 330 330 329 338 334 333 336 341 334
316 316 315 314 313 313 310 305 303 300 298 299 299 306 309 308 307 311 313 312 311 315 318 315 317 323 321 322 323 324 322 322 324 323 328 326 326 325 325 325 330 334 331 332 342 336 333
314 316 315 313 313 312 310 307 303 301 298 299 299 306 308 309 307 306 307 308 310 311 316 316 322 324 326 328 324 324 325 328 330 330 334 334 333 328 325 327 326 330 330 338 333 330 330
314 316 315 313 313 312 311 307 302 301 299 298 298 306 309 309 309 307 306 306 306 308 309 312 320 321 322 327 326 328 332 331 332 336 329 337 334 338 337 333 331 330 328 327 326 326 327

GFSGBSN_850_thetae_069.txt.gz
Theta_e
308 309 309 309 309 309 309 309 309 310 310 310 311 311 311 312 312 313 313 314 314 315 315 315 316 316 316 326 324 325 329 324 321 332 335 335 334 336 337 335 336 336 337 335 335 335 338
307 307 307 307 308 309 310 310 310 310 310 310 311 311 311 312 312 313 313 314 314 315 315 316 316 316 320 323 326 322 328 321 329 331 332 331 331 333 331 332 334 335 335 335 335 336 338
307 306 307 307 306 306 306 306 308 309 310 310 310 311 311 312 312 312 313 313 314 315 315 316 316 316 320 321 322 330 330 329 332 331 329 329 329 328 330 334 332 333 334 336 335 336 337
304 304 304 305 305 305 306 306 305 306 307 308 310 311 311 311 312 312 313 313 314 315 315 316 316 316 323 321 322 328 334 333 332 330 327 325 325 327 329 330 332 333 333 334 336 336 335
303 303 303 303 304 305 305 305 305 305 306 306 307 309 311 311 312 312 313 313 313 314 315 315 317 325 322 321 320 322 328 330 330 327 327 325 325 327 327 329 330 332 334 333 335 335 334
305 304 304 304 303 303 304 304 305 305 305 305 306 307 308 310 312 312 313 314 314 314 316 316 319 323 322 322 322 322 322 324 326 325 325 326 325 328 329 329 329 330 333 334 334 334 334
306 305 305 305 305 304 304 304 304 304 305 305 306 306 306 308 310 312 313 315 320 326 322 322 325 323 323 322 323 323 323 323 324 325 327 326 328 328 329 330 330 330 331 333 334 333 333
310 309 307 306 305 305 305 305 304 304 304 305 305 307 307 307 308 310 312 318 317 314 318 321 321 322 324 324 324 324 324 325 326 327 327 327 328 329 329 329 329 329 329 330 330 331 331
319 316 313 311 308 306 305 305 305 305 305 305 305 306 309 307 308 313 312 316 315 315 319 320 321 322 322 322 323 324 325 325 328 328 328 328 328 329 328 329 328 328 329 330 330 330 331
320 321 321 316 318 309 307 305 305 305 304 304 305 306 307 308 311 310 316 316 313 316 320 322 323 323 323 323 324 323 324 325 328 329 329 329 329 328 327 327 327 328 329 329 329 329 329
321 321 321 321 318 313 307 306 305 305 305 304 304 305 306 307 306 312 312 312 313 317 320 324 324 323 324 323 324 325 324 325 328 329 329 329 328 328 327 327 327 327 329 329 329 330 330
322 321 321 320 320 319 310 310 309 307 305 305 304 304 305 308 309 311 311 312 315 320 321 323 324 324 324 324 326 325 325 324 326 329 330 330 329 329 328 328 327 328 328 329 329 330 330
320 321 321 320 320 320 317 315 316 313 308 306 305 304 305 305 310 310 310 313 320 321 323 323 323 324 324 325 327 327 326 326 326 327 328 329 329 329 328 327 328 328 328 329 331 332 330
320 320 321 320 319 319 319 318 317 314 311 307 305 305 306 306 310 310 311 316 321 323 323 324 323 324 324 325 325 327 327 328 328 328 328 329 330 329 329 328 328 328 328 329 332 333 333
322 319 320 320 320 320 319 318 318 316 318 313 305 308 310 313 312 311 313 317 321 323 324 323 323 322 323 324 325 326 326 327 328 329 329 329 329 330 330 329 329 328 330 330 330 332 332
319 320 320 319 319 319 318 318 318 317 316 315 304 309 312 315 314 313 314 317 320 322 322 322 322 323 323 324 325 325 326 326 326 327 328 328 329 330 329 328 328 328 329 329 330 332 333
319 319 319 319 319 319 318 318 317 316 315 310 307 311 317 315 316 313 314 317 319 319 321 321 322 322 323 324 325 326 326 326 326 327 328 328 329 329 328 327 328 328 328 329 331 331 331
316 317 319 319 318 318 317 317 315 315 314 307 308 314 316 313 316 315 316 317 317 319 319 321 321 321 323 324 324 325 326 327 328 327 326 327 328 328 329 329 329 329 329 329 330 331 331
316 316 318 318 318 317 316 316 315 312 304 302 310 310 315 313 318 319 317 316 317 318 319 320 320 321 321 321 323 324 327 326 328 329 329 328 327 328 328 328 329 328 329 330 331 331 333
315 316 317 318 317 317 317 316 315 312 305 302 309 316 318 315 316 318 320 318 317 316 317 318 320 320 321 321 323 324 326 326 326 329 325 331 329 328 327 329 329 329 328 329 329 332 331
316 316 317 317 317 317 316 316 315 311 305 302 312 316 321 323 319 318 318 319 321 321 319 319 320 319 320 322 322 323 324 325 325 324 329 330 331 330 329 328 330 329 328 328 329 330 330
315 316 316 317 316 316 316 315 315 310 304 306 314 318 320 320 322 323 319 321 322 324 324 323 323 321 322 322 322 322 324 325 326 327 328 331 334 335 331 329 329 328 328 329 329 329 329
316 316 316 317 316 316 316 315 315 312 303 307 308 309 315 319 322 324 322 320 322 322 323 322 323 323 323 323 322 321 322 325 327 328 329 330 332 335 331 329 329 329 328 328 329 329 330
314 316 316 317 316 316 315 315 315 312 302 306 307 305 313 319 322 322 322 321 322 323 323 324 323 326 327 327 324 322 322 324 326 327 327 330 332 333 331 334 338 338 337 332 332 339 339
311 316 316 317 317 316 315 315 314 312 303 301 307 306 312 319 320 321 321 320 321 322 324 324 325 326 326 325 326 325 325 326 326 326 327 327 330 329 330 330 331 338 339 337 335 343 342
310 315 316 317 317 316 315 314 313 311 302 300 306 306 307 315 318 316 318 320 322 322 324 323 325 324 325 328 326 327 327 326 326 326 328 328 330 330 329 330 331 344 340 339 340 343 341
311 314 315 317 317 316 315 314 313 309 303 300 306 304 307 312 313 314 317 319 318 320 324 324 324 323 323 328 326 327 327 328 327 328 330 328 329 326 326 327 328 338 337 339 339 343 338
312 312 315 317 317 315 314 314 313 308 305 300 306 304 305 309 312 312 313 314 315 318 322 321 324 325 323 327 327 327 328 328 328 329 329 330 330 329 327 329 328 335 334 343 339 336 336
312 313 314 315 316 315 314 314 313 309 305 301 305 306 307 308 310 311 310 311 312 313 314 319 328 325 326 328 328 328 326 326 327 327 333 329 329 340 341 341 337 334 334 332 331 333 333

GFSGBSN_850_thetae_072.txt.gz
Theta_e
308 309 309 309 309 310 311 311 311 311 311 311 311 311 312 312 312 312 313 314 314 315 315 315 316 316 317 323 327 331 326 329 325 321 336 340 339 337 337 337 335 336 336 337 336 336 336
307 307 307 308 308 308 308 308 309 310 311 312 312 312 312 312 312 313 313 313 314 315 315 315 316 316 317 324 328 327 323 329 323 325 336 336 338 335 334 333 334 334 334 335 335 336 336
306 306 305 305 305 306 306 307 308 308 308 309 311 312 313 313 313 313 313 313 313 314 315 315 316 316 320 321 323 332 333 330 329 331 331 332 334 332 333 333 332 333 334 333 335 336 336
304 304 304 304 304 305 305 306 307 307 307 308 308 309 310 313 314 314 313 314 314 314 315 315 315 316 322 322 323 323 333 335 332 332 331 330 328 327 328 329 330 332 332 332 334 336 336
305 305 305 305 305 305 305 305 305 307 307 307 308 308 309 310 312 315 314 314 315 315 314 315 315 320 326 323 323 323 328 334 333 332 330 329 327 327 328 328 328 330 329 332 334 335 336
307 306 306 306 306 306 306 306 306 306 307 307 308 308 308 308 310 313 316 314 315 316 315 316 316 323 323 324 323 323 324 331 332 331 328 327 327 327 328 328 328 330 330 332 334 335 336
314 313 312 310 308 307 306 306 306 306 306 306 307 309 309 309 309 311 316 315 321 325 322 323 325 323 323 324 324 324 323 324 327 327 329 327 328 328 328 329 330 330 330 331 332 334 334
320 321 319 316 317 314 309 307 306 306 306 307 307 308 309 310 309 311 314 318 320 317 318 319 321 324 324 325 324 324 325 324 325 327 328 328 328 329 329 330 330 330 330 331 331 331 331
321 321 321 322 321 320 313 310 308 306 306 306 307 306 307 310 309 316 315 316 318 316 318 319 319 320 323 324 325 325 325 325 326 327 328 329 329 329 329 329 328 329 329 329 330 331 331
322 322 321 321 321 321 320 314 312 311 308 306 306 306 306 309 313 314 315 317 315 316 319 321 322 321 321 323 325 324 325 326 327 329 330 330 330 329 329 328 328 329 329 329 329 330 329
323 322 322 321 320 320 321 320 316 317 316 313 307 306 306 304 309 311 315 314 314 316 321 323 325 324 323 323 325 325 324 325 327 328 329 329 330 329 329 329 329 328 328 328 329 330 330
321 322 321 321 321 320 320 320 319 319 318 317 314 306 306 307 309 313 313 313 314 319 322 323 324 325 324 324 325 326 326 325 325 327 329 330 330 330 330 330 329 329 327 328 329 329 330
320 321 320 320 321 320 320 320 319 319 317 319 319 311 305 306 309 312 312 313 318 320 323 323 323 325 324 325 325 326 327 327 327 328 329 329 329 330 330 329 329 328 326 327 330 330 330
320 320 320 320 320 320 320 320 319 319 318 318 318 317 308 309 311 313 314 316 319 322 323 324 324 325 324 324 325 325 326 327 327 327 327 329 328 329 330 329 329 329 328 328 332 331 333
320 320 319 320 319 319 319 319 319 319 318 317 317 314 311 313 314 314 314 317 320 322 323 324 324 324 324 324 325 325 325 327 327 328 329 329 328 330 330 330 330 329 330 329 329 330 330
318 319 320 320 319 319 319 319 318 318 318 315 316 312 314 315 316 314 316 316 319 321 322 323 324 324 324 324 324 325 325 326 327 328 330 329 330 329 330 331 331 330 329 328 330 334 335
316 317 320 318 318 319 318 317 318 317 317 316 314 313 318 317 317 316 317 318 320 320 321 322 323 323 324 324 324 325 326 326 327 327 328 328 331 330 330 331 330 330 329 329 329 331 331
315 315 316 317 319 318 318 317 317 317 316 315 311 315 317 316 318 319 319 319 318 319 320 322 322 322 323 323 324 326 326 327 327 329 326 327 327 329 328 330 331 329 330 329 330 333 333
315 315 316 317 318 318 317 317 316 316 313 309 311 314 313 315 316 320 321 321 319 319 320 320 321 322 323 322 323 324 324 325 327 328 331 332 327 327 329 329 330 328 328 329 333 335 335
315 316 316 317 317 317 317 317 316 315 313 306 310 316 316 318 315 318 320 321 321 319 319 318 320 321 322 322 323 323 323 324 326 327 324 330 331 337 328 330 331 332 329 329 331 335 334
316 316 316 317 317 317 317 316 315 315 312 304 313 316 317 322 323 323 322 320 321 322 322 318 321 320 320 321 322 322 323 324 325 323 326 330 337 333 329 328 328 329 330 329 329 330 331
316 316 316 317 317 317 316 316 316 315 310 305 314 314 317 318 320 323 322 322 321 321 324 325 324 323 322 323 322 323 323 324 326 328 327 331 336 334 332 330 331 329 330 331 330 328 328
313 316 316 317 316 317 317 316 315 315 310 312 311 310 310 314 319 324 324 324 321 322 322 323 325 325 324 322 325 324 322 323 325 329 331 333 336 336 335 332 332 331 330 335 330 331 335
308 313 316 316 316 317 316 316 316 315 313 306 309 310 309 315 318 322 324 323 324 323 323 322 323 324 326 328 326 325 323 323 323 327 331 331 333 336 335 336 334 333 335 340 339 345 346
308 309 313 316 316 316 316 315 315 315 313 306 307 309 309 314 317 321 322 323 321 322 324 324 324 326 326 326 327 327 326 326 325 326 329 331 333 332 333 331 332 336 335 338 345 348 344
308 311 310 316 317 317 317 315 315 314 312 305 307 309 308 310 314 317 318 320 322 321 323 324 325 325 325 327 329 328 326 324 325 326 327 327 331 330 333 332 333 341 331 328 335 351 341
304 311 311 316 317 317 317 316 315 314 310 304 305 308 307 309 310 313 317 318 318 319 321 324 324 325 324 326 331 330 329 329 327 328 332 329 332 329 329 327 328 338 335 336 335 347 339
303 311 312 315 316 317 316 315 314 313 309 306 306 308 307 307 308 310 313 315 316 318 321 320 323 326 326 329 328 330 332 331 330 331 333 334 334 330 331 330 331 336 338 345 342 337 336
303 309 312 314 315 317 316 314 314 313 310 308 306 308 307 308 309 310 309 310 311 313 315 316 323 323 327 326 330 329 332 331 332 332 332 332 330 340 339 341 338 334 334 333 334 334 333

GFSGBSN_850_thetae_075.txt.gz
Theta_e
310 310 309 309 309 309 310 310 311 311 311 311 312 313 313 313 313 313 313 313 314 314 315 315 315 316 316 317 321 322 331 326 328 328 322 328 338 340 338 336 334 331 332 333 334 335 335
307 307 307 307 307 307 308 309 309 310 310 311 311 311 312 314 315 314 314 314 314 314 314 315 315 315 315 321 321 326 326 325 325 326 322 333 339 339 338 334 332 332 330 331 332 333 334
305 305 305 305 305 305 306 306 307 308 309 310 310 311 312 313 314 316 316 315 315 315 314 314 315 314 315 318 321 331 330 325 328 327 328 334 333 334 335 330 332 330 328 329 331 332 332
305 306 306 306 306 306 306 306 306 307 308 308 309 310 311 312 314 316 318 318 316 315 316 314 314 314 315 319 320 322 325 329 331 330 330 331 330 331 327 327 327 326 325 326 329 330 331
308 308 309 308 308 307 307 307 307 307 307 308 308 310 311 312 312 314 318 320 319 316 315 315 314 316 321 323 323 322 323 328 335 333 332 332 330 329 326 324 323 323 324 325 327 329 331
316 316 316 316 316 316 315 313 310 308 307 307 308 308 309 312 312 312 316 321 320 320 317 317 315 321 320 322 326 323 323 325 333 334 332 332 328 324 322 322 322 324 325 325 327 330 332
322 322 322 322 321 320 320 315 313 314 313 310 307 308 308 310 312 311 314 319 319 323 320 323 324 318 320 322 324 324 323 324 327 333 330 330 323 323 323 323 325 326 326 326 328 329 328
322 322 321 321 321 321 321 320 316 316 316 314 311 308 308 309 313 312 316 317 316 319 317 317 317 318 320 322 323 324 324 323 325 326 327 325 325 325 327 327 327 326 326 328 328 329 328
323 322 322 321 321 321 320 321 321 319 318 319 319 313 307 308 311 315 316 317 316 316 315 316 317 318 319 320 321 324 324 324 322 323 324 324 325 327 327 327 327 324 326 327 327 326 326
322 322 323 322 322 321 320 321 321 320 320 319 319 319 311 308 311 313 314 315 315 314 314 318 319 320 319 320 320 322 324 324 324 323 324 324 326 327 328 327 326 324 327 328 327 325 324
321 321 322 321 321 321 320 320 320 320 320 319 319 319 318 309 307 310 313 314 314 315 318 322 322 323 322 320 320 321 323 325 323 325 324 325 326 328 328 328 327 325 326 326 326 323 326
319 320 320 321 320 320 321 320 320 320 319 319 319 317 319 317 307 312 312 312 313 316 320 321 322 322 322 322 321 321 323 325 324 323 325 325 327 327 327 329 328 328 326 325 323 321 323
318 320 320 320 320 320 320 320 319 320 319 319 318 317 318 317 309 308 311 313 315 317 321 321 321 321 323 322 322 322 321 323 322 321 321 324 326 327 328 327 327 327 324 321 322 323 325
317 317 320 319 319 319 318 319 319 319 318 318 317 317 319 311 311 311 314 314 317 320 320 321 321 322 323 323 323 323 322 322 324 323 322 322 324 326 327 327 327 326 323 321 324 327 327
314 317 318 319 320 319 319 319 318 318 318 317 317 318 313 311 313 315 314 315 318 320 321 321 320 321 323 324 323 323 323 322 324 324 324 323 324 327 327 328 327 327 325 324 324 323 324
314 315 316 318 318 319 318 319 318 318 318 317 316 316 315 315 314 314 315 315 317 317 318 319 320 321 323 323 323 323 324 325 325 325 325 324 324 325 327 327 328 326 326 325 322 326 328
315 315 315 316 317 318 319 319 317 317 317 316 315 315 316 317 317 317 316 316 318 318 318 319 320 321 321 322 322 322 324 325 325 326 326 326 325 326 326 326 325 328 327 325 323 324 325
316 315 315 315 315 317 318 318 317 317 317 315 311 315 318 318 318 318 318 319 319 319 318 319 319 320 321 322 322 322 322 324 325 324 324 329 328 325 325 326 328 327 327 326 325 325 327
315 316 315 315 315 317 318 317 317 316 315 312 309 313 315 316 316 315 316 319 320 321 319 318 319 319 320 321 321 323 323 323 324 324 328 327 329 329 327 325 325 326 328 327 326 324 324
314 316 316 316 316 317 317 317 317 315 315 309 307 315 316 315 318 319 318 319 320 320 322 322 319 318 318 319 320 322 323 323 323 323 326 326 328 334 331 330 329 328 329 327 324 327 326
312 315 316 316 316 316 317 316 316 316 315 308 311 317 315 319 317 319 322 323 322 321 320 324 325 321 320 319 320 320 321 322 323 323 326 327 329 333 329 330 329 328 328 328 327 327 331
308 312 316 316 316 317 316 316 316 316 315 309 310 312 311 312 314 317 320 323 325 322 323 324 323 324 324 324 323 323 321 320 322 324 326 331 333 334 335 332 330 332 333 333 336 339 336
305 308 314 316 316 316 316 316 317 316 315 311 313 311 311 311 313 316 321 324 325 324 323 323 323 323 324 325 326 327 326 325 322 321 330 332 330 331 335 333 332 332 345 345 345 339 344
304 306 308 315 316 316 317 316 316 316 315 312 310 309 311 311 312 315 318 322 323 324 323 323 323 324 325 325 326 327 327 326 325 324 329 332 330 330 334 336 336 333 334 342 340 341 339
301 305 308 310 315 316 317 316 316 315 315 314 310 307 310 311 311 313 317 318 319 321 323 322 325 325 324 325 327 328 327 326 325 325 329 325 327 326 333 331 331 342 333 336 338 333 338
300 302 309 310 311 316 316 316 315 315 314 314 310 309 310 310 310 311 311 314 318 318 320 320 321 323 324 325 326 329 331 330 328 325 325 325 324 326 330 334 335 342 331 331 330 339 336
299 300 305 311 311 316 316 317 316 315 314 311 306 308 308 309 309 309 310 312 313 316 319 321 318 320 324 327 330 331 330 330 333 332 335 334 332 329 330 331 341 337 330 331 336 340 339
299 300 306 311 312 316 316 317 316 315 314 311 309 309 309 309 309 308 309 310 313 314 318 317 319 325 326 330 330 330 332 330 332 331 330 333 333 335 335 334 338 336 336 343 339 337 337
299 300 306 311 313 315 316 315 315 314 313 311 308 309 310 309 308 308 306 308 310 311 311 313 319 325 325 328 328 329 328 330 329 333 326 334 333 334 333 336 334 333 335 334 333 333 333

GFSGBSN_850_thetae_078.txt.gz
Theta_e
308 308 308 308 308 308 308 309 310 311 312 312 313 313 314 315 316 317 316 315 315 315 314 314 315 315 316 316 318 320 321 330 326 326 328 325 323 335 337 337 336 331 329 329 328 329 330
305 305 306 306 306 306 306 306 307 307 309 311 312 313 314 315 316 317 318 319 318 316 315 315 314 314 315 318 319 320 326 329 326 325 327 322 329 339 338 335 330 331 327 327 327 328 329
306 306 306 306 306 306 306 306 307 307 307 307 308 310 312 314 315 316 318 320 320 319 316 315 315 314 313 318 319 320 329 331 329 325 327 321 327 335 334 329 329 326 324 325 326 327 327
311 313 314 315 316 317 316 315 315 313 311 309 308 308 309 310 314 316 316 317 321 320 319 316 314 314 313 319 320 320 319 320 326 330 327 330 332 332 329 327 324 323 323 322 325 325 327
318 319 320 320 320 320 321 318 318 317 316 317 316 312 309 309 310 315 317 316 320 320 319 317 314 314 315 318 321 324 320 321 324 330 329 331 331 331 327 322 319 319 321 322 324 326 325
321 321 322 322 322 322 322 321 320 318 319 319 319 319 318 312 309 312 316 317 318 320 320 321 316 318 316 318 321 322 324 322 325 333 334 333 331 323 319 318 321 321 321 321 323 326 325
322 322 322 322 322 321 321 321 321 321 320 320 320 319 319 319 309 310 316 317 316 319 316 316 317 319 319 320 320 321 324 323 324 333 330 331 326 323 322 320 322 322 322 322 324 325 326
323 323 322 322 322 321 321 320 320 321 320 320 319 319 319 319 314 312 315 314 314 313 312 315 316 316 318 320 317 322 323 322 323 326 327 327 325 327 324 324 324 323 323 323 323 325 325
322 321 321 321 322 322 321 320 320 320 320 320 319 319 319 319 314 313 313 314 314 313 312 314 317 317 318 320 318 319 320 322 319 322 324 325 328 327 325 325 325 323 322 323 324 325 323
319 319 319 320 321 321 320 320 320 319 320 320 319 319 318 319 314 310 313 313 314 314 309 314 316 319 318 318 318 320 321 320 320 320 321 321 323 323 324 325 324 322 324 324 325 324 322
317 318 318 318 320 320 319 320 320 319 319 320 319 318 318 317 318 314 311 313 313 315 315 319 320 320 321 319 321 321 321 319 320 321 319 320 322 322 323 324 325 325 325 324 324 322 321
313 315 316 318 318 319 319 320 318 318 318 318 317 318 317 317 318 310 311 312 314 312 316 319 320 319 319 320 319 321 321 320 321 320 320 321 323 323 323 325 326 325 324 321 319 316 319
315 314 316 315 317 316 318 319 318 318 318 318 317 316 316 317 318 311 309 313 311 313 316 318 318 317 318 319 321 320 319 318 317 319 319 320 320 322 324 324 324 325 319 320 321 319 321
315 314 314 316 317 318 319 319 318 318 318 318 316 315 317 315 311 311 313 310 314 316 317 318 317 317 318 319 321 321 319 317 317 317 318 320 321 320 323 322 323 323 319 319 321 320 321
315 315 314 315 316 317 317 318 318 318 317 317 315 316 314 312 313 313 314 310 312 316 318 317 316 317 318 319 320 319 321 322 319 320 318 319 319 322 322 323 323 323 324 320 319 320 321
315 316 315 314 315 315 316 318 318 317 316 317 316 316 315 313 315 315 310 311 312 315 315 316 316 317 317 318 318 318 319 322 323 324 323 324 323 321 323 324 324 323 323 323 318 323 323
316 315 316 315 314 314 315 317 317 316 316 316 315 312 316 317 316 315 311 310 314 317 317 316 316 315 316 317 318 318 319 321 321 322 322 324 323 324 325 324 323 323 324 323 320 319 322
315 315 316 316 315 315 315 317 316 316 316 316 312 309 316 316 315 313 312 316 318 317 317 317 315 315 317 317 318 318 320 320 321 321 324 325 323 323 324 325 325 324 324 323 325 322 321
315 314 314 316 316 316 315 316 316 317 316 314 309 310 317 316 310 308 309 313 318 318 319 318 317 319 316 316 317 318 319 319 320 323 323 323 323 323 328 324 324 323 324 323 320 319 326
314 312 313 316 316 316 315 317 316 316 316 314 307 307 315 315 315 315 315 317 320 321 320 322 322 320 319 316 317 317 318 319 320 322 324 323 322 325 327 329 326 327 327 327 324 323 323
310 308 311 315 316 316 316 316 316 316 316 313 309 312 310 308 310 309 312 316 319 322 321 320 320 321 321 321 320 320 320 322 323 321 322 321 324 327 327 330 329 330 329 336 330 331 326
309 307 307 313 316 316 317 316 316 316 316 311 311 311 311 311 310 309 311 317 320 323 321 320 320 321 319 321 323 324 323 322 319 319 321 323 323 328 331 331 343 347 344 342 340 339 341
308 307 306 309 315 316 316 316 316 316 315 312 311 311 311 310 307 308 310 312 316 316 322 322 320 321 322 322 324 324 324 323 321 321 321 326 324 325 328 329 332 344 345 342 342 340 339
307 305 305 306 311 316 316 316 316 316 316 315 311 309 309 307 307 308 309 311 312 316 318 321 323 323 323 323 324 325 325 324 322 319 321 325 326 326 327 327 337 337 336 337 337 336 339
306 303 302 306 308 313 316 316 316 315 315 315 313 306 308 306 309 309 309 308 310 313 315 319 319 319 321 323 321 323 324 323 323 322 320 322 322 324 327 331 336 337 335 335 339 337 337
305 302 300 304 308 309 315 316 316 315 315 315 314 307 309 310 307 308 308 309 309 309 313 317 318 322 325 318 321 328 326 328 328 328 322 322 319 322 326 330 332 337 332 331 331 340 336
303 300 299 301 307 310 313 315 316 316 315 314 308 307 308 309 309 309 307 307 308 312 311 316 314 320 325 324 327 327 329 327 332 330 326 327 326 325 327 328 339 333 330 331 331 332 332
301 299 299 301 307 311 312 315 316 315 315 314 309 307 308 308 309 309 309 309 308 308 311 314 314 320 324 324 322 324 325 326 326 327 326 328 329 329 328 332 337 333 333 339 334 333 329
300 299 299 303 308 311 314 315 314 315 314 314 312 308 308 309 310 311 311 311 310 308 307 310 312 320 323 323 323 326 325 324 324 329 324 327 328 330 327 330 330 331 332 333 333 334 333

GFSGBSN_850_thetae_084.txt.gz
Theta_e
306 307 309 311 314 316 318 318 319 319 319 319 319 319 319 317 313 311 311 312 314 315 318 319 319 318 316 315 318 321 319 320 319 324 324 325 324 325 331 333 335 333 333 329 327 326 326
314 316 318 319 319 320 321 321 321 320 320 320 320 320 320 320 320 320 318 311 312 314 315 319 320 319 317 312 319 319 319 319 323 327 326 327 325 325 326 334 332 332 330 326 324 324 327
319 320 321 321 322 322 322 322 322 321 321 321 320 319 319 318 318 319 320 318 312 314 315 315 320 320 318 319 319 319 318 318 319 319 330 327 327 325 331 330 329 327 322 321 323 325 324
321 321 322 322 322 322 322 322 321 321 320 320 320 320 319 317 317 317 319 316 314 316 317 318 320 319 317 319 320 320 318 317 320 322 320 323 327 326 327 329 321 320 319 322 322 322 324
322 322 322 323 322 322 322 321 321 319 319 318 319 320 319 317 317 318 319 314 315 316 318 319 318 316 316 317 318 320 320 319 321 322 319 324 331 329 327 321 320 317 321 320 320 321 323
321 322 322 322 321 321 320 320 321 319 318 317 317 318 319 318 317 317 312 315 316 316 319 316 318 318 319 318 318 318 319 320 319 320 321 324 330 322 317 320 326 322 321 319 320 322 320
316 316 316 317 317 316 316 319 319 318 317 317 317 316 319 317 316 314 312 316 315 314 314 314 315 314 317 317 317 318 318 319 319 323 327 329 325 324 326 321 322 321 320 320 319 320 322
315 315 314 314 314 315 314 317 317 316 316 318 316 316 316 314 315 314 312 312 309 309 310 315 314 314 318 316 314 318 317 318 322 322 326 325 326 326 327 322 322 321 321 320 320 321 321
314 314 313 313 312 314 314 314 316 317 318 317 317 316 315 315 315 317 312 310 310 311 310 314 315 316 317 315 315 318 318 318 318 321 324 322 324 327 327 326 325 322 321 321 321 320 319
314 314 313 313 312 312 312 314 314 315 317 317 317 316 316 315 315 317 311 310 310 312 308 312 316 317 318 317 316 319 320 319 317 316 317 320 324 325 325 326 324 324 322 322 321 320 320
315 314 314 314 313 312 311 313 314 315 315 315 315 316 315 314 316 317 312 311 313 312 312 314 317 318 317 317 318 320 320 317 316 316 316 317 319 320 323 323 321 323 322 321 322 320 319
315 314 314 314 315 313 312 312 312 313 314 314 314 314 314 316 316 317 314 311 313 310 312 314 316 314 313 316 317 319 319 317 317 315 316 316 318 318 319 320 320 322 321 318 313 313 318
317 316 314 314 314 315 312 311 311 312 313 314 311 313 315 314 314 316 310 313 310 311 313 315 314 313 312 314 315 316 317 316 314 315 314 315 316 318 319 319 319 320 317 318 319 319 320
319 317 315 315 314 316 313 312 312 314 313 313 314 315 312 312 311 310 312 309 314 314 314 314 314 312 314 314 315 315 316 316 317 314 313 314 316 317 318 318 318 318 315 317 320 319 319
320 318 316 315 314 315 315 314 312 312 315 315 315 314 313 314 312 312 313 310 312 312 314 313 312 314 314 315 315 314 315 317 318 318 318 315 317 317 318 318 318 318 318 317 318 315 317
322 320 317 315 314 314 316 316 312 314 315 315 315 314 312 314 314 314 306 309 310 310 313 313 315 314 314 314 314 313 315 317 317 318 316 318 322 321 322 319 319 318 318 319 318 327 324
323 322 319 316 314 313 316 316 314 315 315 315 315 315 314 313 315 315 308 308 310 315 314 314 314 314 314 315 314 314 316 316 317 318 317 319 319 321 322 322 321 321 319 319 320 319 322
325 323 320 316 313 312 316 316 314 315 315 315 315 310 313 313 313 306 311 312 315 315 318 316 314 313 315 314 314 315 315 316 319 322 319 319 316 320 323 322 321 320 320 318 321 322 319
326 323 319 316 310 311 316 316 315 315 315 314 310 311 313 313 311 307 309 312 313 316 318 319 318 319 317 317 319 317 318 322 322 323 320 320 316 320 322 323 325 326 324 319 318 318 321
325 323 318 314 308 309 315 316 315 315 315 314 311 308 312 313 310 309 308 310 314 316 318 319 318 318 318 319 317 316 322 322 323 324 323 319 319 323 322 324 325 329 328 329 317 317 319
325 323 317 313 309 308 312 316 316 315 315 313 311 308 307 307 308 307 307 309 314 313 314 318 318 319 318 320 321 322 321 321 322 323 320 318 319 321 323 323 327 331 339 340 330 321 322
325 323 317 312 308 306 309 316 316 316 316 313 311 310 310 308 307 306 306 310 311 311 311 318 319 318 318 320 321 321 321 320 321 320 320 315 320 325 325 325 327 336 331 332 340 341 345
326 324 317 312 307 306 307 314 316 316 316 314 311 310 309 308 305 306 306 309 310 309 312 314 317 318 317 318 319 319 319 319 319 319 318 316 317 318 321 323 328 337 338 337 339 337 339
326 323 316 312 307 305 306 309 315 315 315 315 314 312 309 308 305 306 308 308 308 308 309 311 312 315 318 316 322 321 317 317 318 317 317 317 318 318 320 324 328 333 332 335 338 338 337
325 323 317 310 305 303 304 307 314 316 315 315 314 312 308 305 306 307 308 307 308 308 308 311 314 316 314 322 318 321 320 322 323 322 321 315 316 320 321 326 327 338 331 330 333 337 336
325 321 315 308 305 301 302 307 311 315 315 314 314 313 307 307 307 310 307 308 305 304 307 310 313 311 322 319 322 326 326 326 328 326 321 322 318 318 323 328 332 333 331 329 331 337 335
322 319 313 308 304 300 300 305 310 314 314 315 314 310 306 307 309 309 307 307 308 306 304 306 309 310 320 316 321 322 326 324 328 327 325 323 324 325 328 329 333 333 331 332 333 330 333
321 319 311 306 303 300 300 304 310 312 313 315 313 311 307 306 307 308 308 308 309 307 305 307 307 311 313 320 320 319 322 322 322 322 326 322 326 325 324 330 331 328 332 334 331 332 332
318 318 310 303 301 299 300 306 312 312 314 314 314 311 308 307 309 309 310 310 309 309 310 309 307 308 308 317 316 318 323 321 319 322 321 324 324 326 323 327 326 327 329 331 332 332 332

GFSGBSN_850_thetae_087.txt.gz
Theta_e
314 316 318 319 320 320 321 321 321 321 321 320 320 319 319 319 319 319 319 320 320 313 313 314 316 319 319 317 317 319 319 322 321 319 323 324 324 325 327 330 335 337 336 336 335 327 325
319 320 320 321 321 321 322 322 322 322 321 321 320 320 319 318 317 316 316 317 319 319 314 315 314 317 318 318 319 318 318 319 320 323 325 325 326 325 326 327 332 333 332 332 327 325 325
321 321 322 322 322 322 322 322 321 320 319 317 316 317 318 318 317 314 315 316 318 317 316 316 316 317 318 319 319 318 318 317 316 316 317 326 328 326 330 332 331 329 329 330 329 328 328
322 322 322 321 321 321 320 319 319 318 318 317 315 315 315 317 317 314 315 318 318 315 316 317 318 318 318 319 318 318 318 318 319 321 319 318 328 327 327 327 325 326 324 329 328 325 326
317 317 316 316 316 315 315 313 314 317 317 316 314 314 313 315 316 315 317 315 316 316 316 318 319 317 317 317 317 319 319 319 319 320 321 325 327 328 327 327 330 327 330 328 327 324 324
316 316 315 315 314 313 313 312 311 314 315 313 314 315 315 315 313 315 315 315 315 315 318 315 317 317 318 317 317 317 318 318 319 319 323 326 328 329 328 330 328 329 327 324 326 327 326
316 315 314 313 313 312 312 312 311 312 313 316 316 315 314 314 314 315 315 315 314 314 314 315 314 314 318 317 317 317 317 318 318 321 322 327 326 327 330 330 329 328 328 328 327 325 324
316 315 314 313 313 312 311 311 311 310 314 314 316 315 314 315 314 316 312 311 309 311 312 315 315 316 317 316 316 318 317 317 320 322 327 326 326 328 330 331 329 329 330 330 328 324 326
316 315 314 314 314 314 312 311 311 311 312 313 314 314 314 315 315 316 311 310 310 311 312 314 315 316 317 315 316 318 318 318 320 322 323 322 323 326 329 330 330 331 332 332 330 329 325
318 316 314 314 314 315 313 312 311 311 311 312 312 314 314 314 314 316 311 311 311 312 315 316 318 317 317 316 317 319 319 318 319 321 321 323 324 325 327 327 330 330 329 330 329 329 332
319 318 317 315 315 314 314 312 311 311 310 311 312 312 313 313 316 316 313 313 312 311 317 317 318 317 317 317 318 320 319 317 320 320 320 322 322 325 325 326 326 325 325 325 325 328 325
321 320 319 317 315 314 315 313 312 311 312 312 312 313 313 315 314 317 316 310 312 316 316 317 316 316 317 317 317 318 318 317 316 318 319 319 318 320 324 325 325 324 325 323 321 323 325
322 321 320 318 316 315 314 315 314 312 311 313 314 314 314 311 311 314 310 313 316 316 316 317 317 317 316 317 318 318 319 321 320 321 321 321 320 320 320 321 322 323 323 323 324 325 326
323 322 322 320 318 317 314 315 315 312 313 313 315 314 312 312 311 310 312 316 317 315 316 316 317 316 317 317 318 317 319 321 320 321 321 321 322 320 320 321 323 323 324 324 325 325 326
324 324 323 321 317 316 313 315 315 313 314 313 315 312 313 314 313 312 313 318 318 316 315 317 318 319 319 318 317 318 318 319 320 322 324 323 323 324 319 321 322 323 323 324 324 323 323
324 324 323 322 318 316 313 315 316 314 314 313 315 313 313 315 315 314 314 313 314 312 314 316 319 317 320 321 318 318 319 319 320 322 323 323 325 326 325 321 321 323 323 323 324 325 326
324 324 324 322 318 315 312 315 316 314 314 313 315 314 314 313 315 315 316 315 314 315 314 317 318 319 319 320 318 318 318 321 322 325 324 323 324 326 326 326 326 323 323 323 325 326 326
324 324 325 322 318 314 310 314 315 315 314 314 313 316 314 314 316 309 316 314 314 317 318 318 317 317 319 319 322 318 319 324 323 324 326 323 324 326 326 325 324 325 327 327 326 328 327
324 325 325 322 318 313 309 312 316 315 314 314 311 312 313 314 317 315 313 314 314 318 319 321 321 321 320 321 323 322 322 323 323 324 326 326 325 325 325 326 327 329 330 335 332 327 329
324 324 324 322 317 312 309 309 316 315 315 314 311 315 312 312 309 312 313 314 316 316 317 319 321 321 322 323 321 324 323 323 322 323 323 322 325 327 325 327 327 328 330 338 335 332 328
324 325 325 322 317 313 309 308 315 315 315 314 311 311 308 314 312 310 310 312 315 317 315 318 321 321 321 323 323 324 323 323 322 322 324 324 328 325 325 326 327 328 330 336 336 341 338
325 324 325 323 317 311 307 307 312 315 315 314 311 311 309 310 308 309 309 313 313 314 313 320 320 319 320 323 323 324 323 324 324 323 324 324 327 327 327 325 326 329 331 331 334 336 338
325 324 325 323 319 312 307 306 308 315 315 314 312 311 310 309 309 312 313 312 312 310 313 313 316 315 319 321 317 317 318 320 322 324 324 324 326 327 327 325 326 328 339 339 332 333 339
324 324 325 323 318 311 306 305 306 314 315 315 314 313 311 315 311 312 309 310 311 311 311 311 311 313 318 315 319 322 320 319 319 320 320 326 325 326 326 328 327 336 333 330 333 336 337
323 324 324 323 317 309 305 303 305 311 315 315 314 313 310 314 310 311 311 311 310 310 309 310 312 314 313 321 326 327 326 327 327 324 325 322 325 328 328 327 327 337 332 329 331 335 332
318 320 322 323 316 308 304 301 305 307 315 315 314 313 310 310 314 310 310 309 312 312 310 311 311 311 318 324 327 329 329 330 330 329 326 325 326 328 327 328 326 337 330 331 331 334 329
314 319 321 321 313 307 302 300 303 308 313 313 314 313 310 309 310 309 311 312 307 308 310 309 310 310 317 324 326 326 329 326 329 330 330 329 331 331 330 329 334 335 333 332 336 335 333
314 318 319 319 315 305 301 300 301 309 312 312 314 313 310 306 310 309 309 309 309 309 312 311 311 313 314 326 327 326 328 327 328 326 330 329 332 333 332 335 332 330 332 336 334 334 333
311 314 317 317 312 304 300 300 302 310 311 312 314 313 312 308 309 312 312 310 309 309 310 310 309 310 311 324 323 324 329 327 326 327 326 330 328 331 332 334 330 329 330 330 332 334 334

GFSGBSN_850_thetae_093.txt.gz
Theta_e
322 321 321 320 320 319 318 317 315 315 313 313 314 313 311 311 310 311 313 314 314 313 314 316 318 316 315 325 325 326 323 320 319 334 331 333 333 334 334 331 330 330 331 330 330 331 333
320 318 317 316 316 315 315 315 313 312 311 310 311 311 310 311 311 311 311 313 313 314 316 317 317 317 316 323 321 326 331 320 329 334 331 331 331 331 331 331 331 330 330 330 329 329 330
317 317 317 317 317 316 314 313 313 312 310 310 310 311 311 311 311 312 312 312 314 316 316 316 316 317 323 322 323 327 330 330 331 331 329 328 328 329 329 331 331 331 333 332 332 331 331
318 318 318 318 315 314 315 314 312 311 310 310 310 310 311 312 311 311 312 314 315 315 316 316 317 318 324 321 320 320 322 327 325 322 323 325 324 326 328 329 330 331 331 332 332 333 331
319 319 318 318 315 316 316 316 315 313 311 310 310 310 310 312 312 312 314 315 315 316 316 317 325 326 325 320 321 322 322 321 321 322 324 325 324 324 325 329 330 330 329 330 331 333 332
320 320 319 317 315 316 317 316 314 313 312 311 310 310 310 312 313 313 316 316 316 317 316 319 322 325 324 322 321 321 321 322 322 322 326 327 327 328 328 329 329 330 331 331 331 333 333
321 321 319 318 317 317 317 316 314 312 312 311 310 310 310 313 314 315 316 320 321 322 321 321 322 322 322 321 321 322 321 321 321 323 325 326 329 329 329 330 331 331 330 331 330 331 332
322 321 321 321 321 320 319 317 315 313 312 311 311 310 310 313 314 316 317 318 316 316 322 320 320 321 321 320 323 323 322 323 323 324 325 326 327 328 329 329 328 328 329 330 331 331 331
324 323 324 323 323 321 320 318 315 314 312 311 311 312 311 313 315 320 317 316 316 316 321 322 321 322 322 321 323 324 323 324 326 327 327 327 327 327 327 327 327 328 329 329 329 330 331
324 324 325 324 323 322 320 319 315 314 312 312 313 313 312 314 321 319 319 316 316 315 327 325 324 323 322 322 324 323 323 323 325 326 326 326 327 326 326 326 326 327 328 328 328 329 330
325 325 325 325 324 324 321 320 315 315 313 313 312 313 314 314 313 321 320 317 316 317 332 323 324 321 322 322 323 324 322 323 325 326 325 326 326 326 326 326 326 326 327 327 328 328 330
325 325 325 325 325 324 322 320 316 315 314 313 312 314 313 315 318 318 317 316 317 325 329 324 322 323 324 324 323 322 324 324 324 326 328 327 327 327 326 325 325 326 326 327 328 328 329
325 325 325 325 325 325 323 321 316 316 314 314 312 314 314 311 319 315 315 318 326 328 324 325 324 324 323 324 324 324 325 327 326 328 329 328 329 328 326 326 327 326 326 327 328 328 328
325 325 325 325 325 326 324 321 316 316 315 314 313 314 315 314 313 315 318 324 328 326 324 324 324 324 324 323 324 323 324 326 327 327 329 329 329 329 328 328 328 327 326 327 329 328 328
324 325 325 326 326 326 324 320 316 315 315 314 313 318 317 319 316 316 319 326 328 325 323 323 324 325 325 325 323 324 325 325 325 326 328 328 328 328 327 328 328 328 326 326 326 327 326
324 324 325 326 326 326 324 319 316 315 314 314 313 318 319 317 318 318 322 324 324 322 322 323 325 324 325 325 325 325 324 324 324 326 326 327 328 328 328 327 328 330 329 327 326 328 328
323 324 324 325 326 326 324 319 316 315 314 314 317 320 320 317 317 320 324 325 323 322 322 324 325 325 325 326 325 325 325 324 325 326 325 326 327 330 328 327 328 329 330 329 331 332 334
324 324 324 325 325 326 324 319 316 314 314 316 317 322 319 317 321 323 324 323 319 322 323 323 324 324 325 325 326 326 325 326 324 324 325 326 327 328 328 328 329 328 333 332 333 338 336
325 324 325 324 325 325 324 319 314 312 314 315 319 319 319 317 324 325 323 321 320 322 324 325 326 325 326 326 327 326 326 325 324 325 326 326 326 326 327 328 330 331 329 331 333 332 337
324 325 325 326 325 325 324 319 314 311 314 315 318 323 322 320 320 322 323 323 322 321 321 322 325 325 326 326 327 327 327 326 324 325 322 324 326 328 329 329 328 328 328 329 330 332 336
322 324 325 326 325 324 324 321 313 310 314 315 321 322 320 323 323 322 321 321 321 322 322 322 324 325 326 327 327 326 326 327 325 325 324 326 329 329 329 328 327 327 327 326 328 329 336
313 321 324 325 325 325 324 319 313 309 312 316 319 321 320 319 320 320 317 321 321 321 320 321 324 324 325 325 325 326 327 326 325 324 325 326 330 329 330 327 327 327 326 326 327 327 332
302 315 321 324 324 324 325 321 314 308 311 318 319 317 317 319 321 321 321 321 321 320 319 319 320 322 323 323 323 323 322 321 322 324 327 330 331 331 331 328 328 329 327 329 328 332 332
302 305 315 322 324 324 325 322 315 308 308 317 317 317 319 322 322 322 321 319 319 319 319 319 319 320 320 320 320 320 322 323 324 328 328 331 332 332 332 332 335 331 333 331 330 330 334
302 302 307 318 323 323 324 322 314 308 306 312 317 317 318 322 320 321 320 320 318 318 319 318 317 317 318 319 322 325 326 328 332 330 331 329 330 332 334 332 332 333 337 337 336 335 337
302 302 303 314 320 321 322 321 315 307 304 309 316 317 317 319 320 320 320 319 320 320 320 320 319 317 317 320 323 326 327 326 328 330 331 332 332 334 333 336 335 339 337 335 335 335 336
302 302 302 307 317 318 320 320 313 306 303 306 317 316 316 317 318 318 319 320 320 319 320 319 319 319 318 320 323 324 325 329 330 329 332 331 333 337 337 335 334 335 334 335 337 340 335
301 302 303 309 315 316 317 318 310 304 302 303 314 315 315 316 316 317 317 317 317 317 319 320 320 320 319 322 322 323 326 330 331 328 331 329 333 334 335 334 335 332 334 336 338 334 333
301 302 303 309 313 315 317 314 305 302 302 307 313 314 314 314 316 317 316 316 316 316 318 318 320 321 320 322 327 326 325 327 328 330 330 333 330 332 333 335 332 332 335 335 334 332 333

GFSGBSN_850_thetae_096.txt.gz
Theta_e
318 317 317 317 318 317 316 315 315 314 313 311 311 311 311 311 311 311 312 312 312 313 314 314 315 317 317 323 323 327 324 323 322 324 341 336 334 333 334 335 333 332 331 331 331 330 330
318 318 318 318 318 316 316 316 315 313 312 311 310 310 311 311 312 312 312 312 313 314 315 316 316 317 317 323 324 327 330 324 324 326 336 332 333 333 333 332 332 331 331 331 330 331 331
319 319 319 319 317 317 318 318 318 317 315 312 311 311 311 311 312 313 312 313 313 315 315 316 316 317 323 325 324 326 329 332 328 331 331 331 331 330 330 331 330 331 332 332 333 332 332
320 321 321 320 317 318 319 318 317 315 316 314 312 312 312 312 312 312 313 314 315 316 316 316 316 317 327 323 323 322 325 329 330 332 330 328 327 327 326 327 329 330 330 330 331 331 332
322 321 321 320 319 319 319 319 317 314 313 314 313 312 312 311 312 313 314 316 316 316 317 317 324 324 329 323 321 322 322 322 324 326 325 324 324 325 326 326 326 328 330 331 331 332 333
323 322 322 322 322 321 320 320 317 315 313 312 312 312 311 311 313 314 316 317 318 319 317 320 323 327 327 324 323 323 323 323 324 324 324 324 327 328 328 327 327 328 329 330 331 332 332
324 323 323 323 323 323 321 321 318 316 314 312 312 312 311 312 314 316 319 322 323 325 324 324 324 325 324 323 323 324 323 323 323 324 325 326 329 330 330 330 330 330 330 330 330 331 331
324 324 324 325 324 324 323 322 320 316 314 312 312 313 312 313 314 317 320 320 319 319 320 323 322 322 323 322 324 325 323 324 324 325 326 326 326 328 329 329 329 329 329 329 329 329 330
323 325 325 325 325 324 324 322 321 317 315 313 313 312 313 313 317 322 321 318 319 319 322 326 323 323 324 323 324 325 324 325 326 327 328 328 328 329 328 328 327 328 327 327 328 329 330
324 325 325 325 326 325 325 322 321 318 316 314 313 312 314 314 323 322 323 320 319 318 325 326 324 324 323 324 325 325 324 324 325 326 327 327 327 327 327 327 327 327 328 327 327 327 327
325 325 326 326 326 326 326 323 321 318 317 314 314 313 313 315 314 324 321 319 318 320 333 326 326 323 323 324 325 325 324 324 325 326 326 326 327 327 327 327 327 326 326 326 327 327 327
325 325 326 326 326 326 326 325 321 319 318 315 314 313 313 317 322 321 318 318 320 326 330 326 325 325 325 325 325 324 324 325 326 327 329 329 329 329 329 328 327 327 326 326 326 327 329
325 325 325 326 326 326 326 326 322 319 318 317 314 313 314 315 321 318 319 321 327 330 327 327 326 326 325 325 325 325 325 326 328 328 330 329 330 330 328 328 328 329 329 329 329 328 329
324 324 325 325 326 326 326 326 322 319 318 318 314 314 314 316 316 319 320 325 330 330 328 326 326 325 325 326 326 325 325 326 328 327 328 330 330 329 329 329 328 329 329 328 330 327 326
323 324 324 325 326 326 326 326 322 319 317 317 315 318 320 321 319 319 322 327 330 328 326 325 324 326 328 326 325 325 326 326 326 327 328 328 328 327 328 329 328 328 328 330 330 328 328
324 324 324 324 325 326 326 326 322 319 317 316 315 320 322 321 319 320 324 324 326 325 324 324 325 327 327 328 326 327 326 326 325 326 327 327 327 326 328 329 328 328 329 332 332 334 332
325 324 324 324 324 325 326 326 323 320 318 316 319 323 323 321 318 320 325 327 326 324 324 325 326 327 327 327 327 326 327 326 326 326 326 326 327 328 327 327 328 330 333 333 333 331 337
319 324 324 325 324 325 325 325 322 319 319 317 320 325 323 321 321 325 327 326 322 323 324 325 325 325 325 326 327 328 327 327 325 325 325 327 326 327 326 326 328 329 333 331 331 330 332
318 323 325 325 325 325 325 326 323 317 314 315 321 323 323 320 323 326 327 325 323 322 323 325 327 327 326 327 328 328 328 327 325 325 327 326 326 326 326 328 329 329 329 331 332 331 332
307 319 323 325 325 326 326 326 323 315 312 315 321 326 325 323 323 324 324 325 325 323 323 322 324 325 326 327 327 328 329 327 326 326 324 324 327 329 330 330 329 329 328 328 329 330 332
302 309 321 322 324 325 326 326 323 314 311 314 323 326 324 325 324 325 325 324 324 323 323 323 324 325 325 327 327 328 328 328 328 326 325 326 327 327 328 328 328 328 328 327 327 327 330
302 302 305 313 321 323 325 325 324 315 311 314 323 323 322 322 322 323 322 323 322 323 323 323 323 323 326 327 328 326 326 328 328 325 325 324 327 329 331 329 329 329 328 328 328 328 326
302 302 302 304 319 324 325 325 324 315 310 319 323 322 321 321 322 324 325 324 323 323 322 321 321 321 322 324 323 323 323 323 323 323 325 327 329 332 332 330 330 330 336 334 334 331 335
302 302 302 303 312 319 323 324 324 318 309 312 318 321 320 322 323 324 324 323 322 322 321 320 320 321 321 320 320 320 321 322 323 325 325 333 333 333 332 332 334 333 333 332 335 338 338
302 302 302 302 307 316 323 324 324 319 310 307 313 320 319 322 322 322 322 323 322 321 321 320 320 319 318 319 321 322 324 327 328 331 331 332 335 332 333 332 332 334 331 333 335 338 336
301 302 302 302 306 313 320 322 323 319 311 306 308 318 319 320 321 321 322 322 322 321 321 321 321 320 319 320 320 323 326 327 327 333 332 332 335 336 335 335 338 336 329 327 335 340 335
300 301 302 302 303 309 317 320 321 317 311 305 312 320 319 319 319 319 321 322 321 322 322 321 321 321 320 321 321 322 323 325 328 330 331 333 333 337 337 335 333 334 332 333 338 340 334
301 301 301 302 303 306 313 317 318 318 310 306 307 317 317 318 318 318 319 319 319 319 320 319 321 322 322 321 322 323 323 327 330 331 330 334 336 335 336 337 337 333 333 337 335 335 333
302 301 301 302 303 308 313 315 316 315 306 303 304 316 316 316 316 316 317 318 318 319 319 320 321 321 324 323 324 328 329 328 330 328 331 333 331 332 332 333 334 332 334 334 334 335 334

GFSGBSN_850_thetae_102.txt.gz
Theta_e
322 322 322 321 320 321 321 321 321 319 317 315 316 318 316 315 315 314 315 314 314 314 314 314 314 315 315 317 319 322 327 325 323 323 322 325 337 339 334 331 330 329 327 328 327 328 328
323 322 322 322 323 322 322 322 322 319 317 315 314 316 316 315 314 314 314 314 314 315 315 314 315 315 315 318 324 326 325 325 325 323 323 332 339 337 332 329 327 328 324 324 325 326 327
324 323 323 324 323 324 323 322 322 319 317 315 314 314 314 314 314 314 315 315 316 316 316 315 316 316 316 317 325 328 327 325 329 327 323 324 332 332 323 323 324 324 321 321 323 325 325
324 325 324 325 325 324 324 324 322 320 318 316 314 314 314 314 314 314 318 318 317 317 316 316 316 317 317 325 323 325 324 329 326 330 326 331 331 329 322 323 323 321 320 320 322 323 324
323 325 325 325 326 325 325 325 323 322 320 318 315 314 314 314 314 315 320 319 319 319 317 317 325 327 327 324 323 322 323 322 321 322 329 330 330 326 323 322 320 319 320 320 322 324 324
324 324 325 325 325 326 326 326 325 323 321 320 318 315 314 314 314 318 319 320 321 322 322 320 324 325 327 326 323 323 323 322 321 322 323 324 325 319 317 319 322 322 321 320 322 325 325
324 324 325 325 325 325 326 326 326 324 323 321 320 317 314 314 320 321 319 320 318 322 319 321 325 323 324 323 323 323 323 323 322 322 320 322 319 318 318 320 324 323 322 322 324 325 324
325 325 325 325 325 325 326 326 326 326 323 322 320 319 315 314 321 323 321 320 320 318 318 319 319 320 323 322 322 324 323 323 322 320 320 319 319 320 321 323 324 325 324 322 322 323 323
324 324 325 325 325 325 325 325 326 326 324 322 321 320 316 314 322 323 322 320 320 319 316 319 322 322 322 323 322 323 323 324 322 321 320 319 321 324 324 322 322 321 321 321 321 321 320
324 324 324 324 324 325 325 325 326 326 324 323 321 320 317 316 316 323 321 318 319 319 317 323 324 323 323 323 322 324 324 324 323 322 321 321 322 324 324 325 323 322 323 323 322 320 319
324 324 324 324 324 324 324 325 325 326 325 324 323 321 319 315 314 320 318 319 320 320 328 326 323 324 323 322 323 324 325 324 322 322 323 322 324 324 325 325 324 323 323 323 323 322 318
324 325 324 324 324 324 324 325 325 326 326 326 325 324 320 317 314 321 318 322 321 322 329 324 322 322 321 322 323 324 324 324 323 323 323 322 326 324 324 324 325 325 323 321 320 317 321
325 325 326 325 324 324 324 325 325 325 326 326 325 324 321 318 315 316 320 322 321 325 325 323 323 320 321 322 322 322 322 322 320 322 321 323 326 324 324 322 322 322 320 322 322 322 323
323 325 326 327 326 325 324 325 325 325 326 326 325 324 322 319 319 321 321 319 326 328 323 322 322 321 322 323 324 323 322 320 323 322 322 323 324 323 323 324 323 322 322 321 325 324 326
307 310 312 318 323 326 325 325 326 325 326 326 325 324 323 322 319 320 321 319 324 323 323 322 321 322 324 323 323 323 323 322 323 322 323 322 324 323 324 323 323 322 320 321 323 325 325
303 303 305 310 312 323 325 325 326 325 325 326 325 324 322 321 319 319 316 319 321 323 323 321 321 322 323 322 322 322 323 322 323 322 321 322 321 322 325 323 322 321 320 325 322 327 330
303 303 303 303 312 318 325 325 326 326 326 326 324 322 322 321 319 319 315 317 322 324 323 322 322 322 323 323 322 323 324 323 323 323 322 322 320 322 322 321 321 321 319 325 322 323 326
304 303 303 303 304 313 321 325 326 326 326 325 321 318 323 322 320 315 316 321 324 323 322 321 323 323 323 323 324 325 325 325 326 324 325 322 317 320 322 321 323 320 327 323 324 326 322
303 303 303 303 303 306 320 322 326 326 326 323 317 319 324 324 316 313 316 321 323 321 320 321 322 321 321 322 324 325 325 325 325 324 323 322 319 320 321 319 321 324 323 323 321 320 326
302 303 303 303 302 303 312 320 324 326 326 322 317 318 324 323 321 320 318 320 321 323 321 321 321 321 321 321 321 322 324 326 325 324 323 322 318 320 321 321 322 322 323 325 324 321 323
301 301 303 303 302 302 303 316 320 325 325 322 317 322 322 317 320 318 318 320 321 321 321 320 320 321 321 322 320 321 321 322 322 324 321 317 320 321 320 321 322 323 325 330 329 331 333
300 300 301 302 302 302 302 305 317 321 325 323 315 323 321 321 321 319 318 320 322 322 321 321 321 319 317 319 319 319 317 319 320 319 318 315 318 320 320 321 323 326 333 333 334 334 337
300 300 300 301 302 302 302 302 308 321 324 319 320 321 321 321 317 317 318 320 321 320 321 320 319 318 317 319 318 318 318 317 317 317 316 316 316 317 319 320 323 329 333 333 335 333 336
300 299 299 300 301 302 302 302 311 321 322 321 314 312 319 318 317 318 319 320 319 320 320 321 321 318 320 320 319 319 319 318 317 315 315 315 315 318 320 325 332 328 329 331 333 333 334
301 300 299 299 300 301 302 302 308 317 321 323 316 310 319 316 318 319 320 319 319 320 319 320 321 321 321 320 314 315 315 315 318 317 316 314 316 324 331 331 330 333 329 333 332 332 333
301 301 300 299 300 301 302 302 306 315 319 321 319 308 316 317 317 320 320 319 316 315 316 320 321 321 320 314 314 317 316 318 318 318 325 327 325 330 331 333 334 331 332 332 331 334 331
301 301 301 301 300 300 301 302 306 314 316 319 317 309 315 319 319 320 318 317 318 317 315 317 320 320 320 313 316 316 316 316 318 318 321 327 328 331 333 331 331 331 332 331 335 331 330
301 301 301 302 302 300 301 302 304 313 315 318 318 311 311 316 318 319 318 318 318 317 316 319 317 319 317 318 317 316 316 318 325 326 328 328 328 328 327 330 332 331 333 331 327 332 331
301 301 301 301 302 302 300 301 304 311 313 315 317 311 312 313 316 317 318 318 318 317 316 318 318 318 319 316 318 318 320 320 323 325 324 329 327 327 325 325 325 328 331 332 332 331 332